W5TTY Weather Reports


time (UTC)temp
F
wind
direction
speed
knots
gust
knots
rain 1hr
in
rain 24hr
in
rain mn
in
humidity
%
barometer
mb
20260504033321 63 188 2.6 4.3 0.00 0.00 0.00 60 1017.4
20260504032853 63 191 1.7 4.3 0.00 0.00 0.00 60 1017.2
20260504032336 63 182 1.7 3.5 0.00 0.00 0.00 60 1017.3
20260504031842 63 188 1.7 4.3 0.00 0.00 0.00 59 1017.3
20260504031327 63 192 2.6 4.3 0.00 0.00 0.00 59 1017.3
20260504030832 63 189 2.6 3.5 0.00 0.00 0.00 59 1017.3
20260504030338 64 185 2.6 4.3 0.00 0.00 0.00 59 1017.3
20260504025823 64 187 1.7 4.3 0.00 0.00 0.00 59 1017.3
20260504025328 64 189 2.6 4.3 0.00 0.00 0.00 59 1017.3
20260504024851 64 182 1.7 4.3 0.00 0.00 0.00 58 1017.4
20260504024335 64 182 1.7 4.3 0.00 0.00 0.00 58 1017.3
20260504023839 65 174 2.6 4.3 0.00 0.00 0.00 58 1017.2
20260504023349 65 169 2.6 5.2 0.00 0.00 0.00 58 1017.2
20260504022834 65 177 1.7 4.3 0.00 0.00 0.00 58 1017.1
20260504022336 65 172 2.6 4.3 0.00 0.00 0.00 58 1017.0
20260504021823 65 171 2.6 4.3 0.00 0.00 0.00 58 1017.0
20260504021327 66 182 1.7 4.3 0.00 0.00 0.00 58 1017.0
20260504020831 66 192 2.6 5.2 0.00 0.00 0.00 57 1017.0
20260504020339 66 161 2.6 5.2 0.00 0.00 0.00 57 1017.0
20260504015819 67 171 2.6 4.3 0.00 0.00 0.00 57 1016.9
20260504015331 67 170 1.7 4.3 0.00 0.00 0.00 57 1016.9
20260504014840 68 173 1.7 3.5 0.00 0.00 0.00 57 1016.9
20260504014322 68 160 1.7 4.3 0.00 0.00 0.00 57 1016.9
20260504013824 68 174 1.7 3.5 0.00 0.00 0.00 57 1016.9
20260504013328 69 149 1.7 4.3 0.00 0.00 0.00 57 1016.8
20260504012846 69 175 0.0 3.5 0.00 0.00 0.00 57 1016.8
20260504012347 70 170 1.7 5.2 0.00 0.00 0.00 57 1016.8
20260504011827 70 159 2.6 5.2 0.00 0.00 0.00 57 1016.7
20260504011334 71 155 2.6 6.1 0.00 0.00 0.00 57 1016.7
20260504010843 71 172 2.6 6.1 0.00 0.00 0.00 57 1016.7
20260504010348 72 182 1.7 4.3 0.00 0.00 0.00 57 1016.9
20260504005840 72 183 2.6 3.5 0.00 0.00 0.00 58 1016.9
20260504005324 73 188 1.7 4.3 0.00 0.00 0.00 58 1016.8
20260504004824 73 188 0.9 4.3 0.00 0.00 0.00 58 1016.6
20260504004352 73 174 2.6 4.3 0.00 0.00 0.00 58 1016.7
20260504003858 74 173 1.7 5.2 0.00 0.00 0.00 58 1016.8
20260504003323 74 171 2.6 5.2 0.00 0.00 0.00 58 1016.9
20260504002832 75 186 1.7 3.5 0.00 0.00 0.00 59 1016.8
20260504002318 75 186 1.7 3.5 0.00 0.00 0.00 59 1016.9
20260504001822 75 184 2.6 6.1 0.00 0.00 0.00 59 1016.9
20260504001325 75 150 2.6 7.8 0.00 0.00 0.00 59 1017.0
20260504000837 76 183 2.6 7.8 0.00 0.00 0.00 60 1017.0
20260504000342 76 171 2.6 7.0 0.00 0.00 0.00 60 1017.0
20260503235820 76 197 3.5 6.1 0.00 0.00 0.00 60 1017.1
20260503235330 76 185 1.7 7.0 0.00 0.00 0.00 60 1017.2
20260503234836 77 219 4.3 7.0 0.00 0.00 0.00 60 1017.2
20260503234320 77 201 2.6 7.8 0.00 0.00 0.00 61 1017.3
20260503233828 77 204 2.6 10.4 0.00 0.00 0.00 61 1017.3
20260503232823 77 229 5.2 9.6 0.00 0.00 0.00 62 1017.3
20260503232327 77 166 3.5 7.8 0.00 0.00 0.00 62 1017.3
20260503231826 77 188 3.5 11.3 0.00 0.00 0.00 62 1017.3
20260503231333 77 136 5.2 11.3 0.00 0.00 0.00 62 1017.3
20260503230819 77 172 3.5 8.7 0.00 0.00 0.00 62 1017.2
20260503230322 77 173 3.5 8.7 0.00 0.00 0.00 63 1017.3
20260503225856 77 142 2.6 8.7 0.00 0.00 0.00 63 1017.3
20260503225322 77 171 4.3 9.6 0.00 0.00 0.00 63 1017.4
20260503224825 77 137 3.5 9.6 0.00 0.00 0.00 63 1017.4
20260503224328 77 152 5.2 11.3 0.00 0.00 0.00 63 1017.4
20260503223859 77 150 3.5 11.3 0.00 0.00 0.00 63 1017.5
20260503223345 78 128 2.6 9.6 0.00 0.00 0.00 64 1017.5
20260503222829 78 144 2.6 7.8 0.00 0.00 0.00 64 1017.4
20260503222333 78 136 2.6 7.8 0.00 0.00 0.00 65 1017.6
20260503221821 78 146 3.5 8.7 0.00 0.00 0.00 65 1017.7
20260503221349 78 121 2.6 8.7 0.00 0.00 0.00 66 1017.6
20260503220835 78 130 2.6 10.4 0.00 0.00 0.00 66 1017.6
20260503220343 78 127 5.2 10.4 0.00 0.00 0.00 66 1017.8
20260503215828 78 169 2.6 10.4 0.00 0.00 0.00 66 1017.9
20260503215353 78 193 5.2 10.4 0.00 0.00 0.00 66 1018.0
20260503214839 78 197 4.3 8.7 0.00 0.00 0.00 67 1018.1
20260503214330 78 178 4.3 8.7 0.00 0.00 0.00 67 1018.2
20260503213833 78 198 4.3 9.6 0.00 0.00 0.00 67 1018.2
20260503213321 78 111 4.3 9.6 0.00 0.00 0.00 68 1018.2
20260503212830 78 192 5.2 10.4 0.00 0.00 0.00 68 1018.2
20260503212335 78 250 3.5 10.4 0.00 0.00 0.00 68 1018.3
20260503211820 78 150 2.6 8.7 0.00 0.00 0.00 68 1018.4
20260503211327 78 116 4.3 7.8 0.00 0.00 0.00 68 1018.5
20260503210832 78 159 4.3 10.4 0.00 0.00 0.00 69 1018.7
20260503210337 78 212 6.1 10.4 0.00 0.00 0.00 70 1018.8
20260503205823 78 186 3.5 8.7 0.00 0.00 0.00 70 1018.9
20260503205324 78 136 2.6 9.6 0.00 0.00 0.00 70 1018.9
20260503204833 78 150 4.3 12.2 0.00 0.00 0.00 71 1019.1
20260503204317 78 140 7.0 12.2 0.00 0.00 0.00 71 1019.0
20260503203824 78 187 4.3 8.7 0.00 0.00 0.00 71 1019.1
20260503203330 78 254 5.2 7.8 0.00 0.00 0.00 72 1019.2
20260503202833 78 261 1.7 7.8 0.00 0.00 0.00 72 1019.3
20260503202337 78 192 3.5 11.3 0.00 0.00 0.00 72 1019.5
20260503201848 78 161 7.0 11.3 0.00 0.00 0.00 73 1019.6
20260503201330 78 164 4.3 7.0 0.00 0.00 0.00 73 1019.6
20260503200837 78 147 3.5 7.8 0.00 0.00 0.00 74 1019.7
20260503200322 77 229 1.7 5.2 0.00 0.00 0.00 74 1019.7
20260503195829 78 229 1.7 9.6 0.00 0.00 0.00 74 1019.8
20260503195331 77 165 4.3 9.6 0.00 0.00 0.00 75 1019.9
20260503194837 77 171 4.3 8.7 0.00 0.00 0.00 75 1020.0
20260503194322 78 142 3.5 8.7 0.00 0.00 0.00 75 1020.1
20260503193824 77 247 2.6 10.4 0.00 0.00 0.00 76 1020.2
20260503193323 77 232 7.8 10.4 0.00 0.00 0.00 76 1020.2
20260503192839 76 219 4.3 7.8 0.00 0.00 0.00 76 1020.3
20260503192344 76 120 2.6 6.1 0.00 0.00 0.00 77 1020.3
20260503191830 77 246 2.6 10.4 0.00 0.00 0.00 77 1020.5
20260503191336 77 238 7.0 10.4 0.00 0.00 0.00 77 1020.5
20260503190844 77 256 3.5 8.7 0.00 0.00 0.00 78 1020.6
20260503190326 76 126 1.7 6.1 0.00 0.00 0.00 78 1020.7
20260503185831 77 137 2.6 8.7 0.00 0.00 0.00 79 1020.7
20260503185335 77 200 5.2 8.7 0.00 0.00 0.00 79 1020.8
20260503184820 76 158 1.7 7.8 0.00 0.00 0.00 79 1020.8
20260503184328 76 268 4.3 12.2 0.00 0.00 0.00 79 1020.9
20260503183835 76 227 5.2 12.2 0.00 0.00 0.00 80 1021.0
20260503183321 76 265 4.3 9.6 0.00 0.00 0.00 80 1021.0
20260503182828 76 212 6.1 9.6 0.00 0.00 0.00 81 1021.1
20260503182329 75 236 5.2 10.4 0.00 0.00 0.00 81 1021.2
20260503181836 75 184 4.3 8.7 0.00 0.00 0.00 81 1021.3
20260503181349 75 268 5.2 8.7 0.00 0.00 0.00 82 1021.3
20260503180826 75 223 5.2 9.6 0.00 0.00 0.00 82 1021.4
20260503180333 75 215 5.2 9.6 0.00 0.00 0.00 82 1021.5
20260503175820 75 184 4.3 8.7 0.00 0.00 0.00 82 1021.7
20260503175323 75 234 4.3 8.7 0.00 0.00 0.00 83 1021.7
20260503174829 75 230 2.6 11.3 0.00 0.00 0.00 83 1021.8
20260503174334 75 216 4.3 11.3 0.00 0.00 0.00 83 1022.0
20260503173838 74 215 4.3 9.6 0.00 0.00 0.00 84 1022.1
20260503173328 74 217 4.3 8.7 0.00 0.00 0.00 84 1022.2
20260503172833 74 232 2.6 8.7 0.00 0.00 0.00 84 1022.3
20260503172317 74 215 5.2 10.4 0.00 0.00 0.00 84 1022.4
20260503171824 74 144 5.2 10.4 0.00 0.00 0.00 85 1022.4
20260503171326 74 229 3.5 10.4 0.00 0.00 0.00 85 1022.5
20260503170859 74 228 4.3 10.4 0.00 0.00 0.00 85 1022.5
20260503170344 74 252 6.1 8.7 0.00 0.00 0.00 86 1022.6
20260503150822 69 238 5.2 8.7 0.00 0.00 0.00 89 1022.8
20260503150327 68 236 2.6 7.8 0.00 0.00 0.00 89 1022.8
20260503131327 57 218 0.0 3.5 0.00 0.00 0.00 88 1022.3
20260503130859 56 218 1.7 3.5 0.00 0.00 0.00 88 1022.2
20260503130344 56 215 0.9 1.7 0.00 0.00 0.00 87 1022.2